English version
lugares datos climáticos artículos

datos de Mairena del Aljarafe, Sevilla, España
Año Mes Dia Mostrar

  Fecha       hora        Temp.ext.    Hum.ext.  Dir.Viento   Vel.Viento  Presion al NM   T.int. Prec.hoy 

   21-06-2018    02:50      21.1º(-2.0)     77%      270 (W)      3.2 km/h    1015.9 hpa     30.1º    0.0 mm
   21-06-2018    02:45      21.1º(-2.1)     77%      270 (W)      4.8 km/h    1016.2 hpa     30.1º    0.0 mm
   21-06-2018    02:40      21.1º(-2.2)     77%      270 (W)      6.4 km/h    1016.2 hpa     30.1º    0.0 mm
   21-06-2018    02:35      21.1º(-2.2)     77%      270 (W)      8.0 km/h    1016.3 hpa     30.1º    0.0 mm
   21-06-2018    02:30      21.1º(-2.3)     76%      270 (W)      8.0 km/h    1016.2 hpa     30.1º    0.0 mm
   21-06-2018    02:25      21.2º(-2.2)     76%      270 (W)      6.4 km/h    1016.2 hpa     30.1º    0.0 mm
   21-06-2018    02:20      21.2º(-2.4)     76%      270 (W)      6.4 km/h    1016.2 hpa     30.1º    0.0 mm
   21-06-2018    02:15      21.3º(-2.6)     76%      270 (W)      8.0 km/h    1016.3 hpa     30.1º    0.0 mm
   21-06-2018    02:10      21.3º(-3.0)     75%      270 (W)      8.0 km/h    1016.3 hpa     30.1º    0.0 mm
   21-06-2018    02:05      21.3º(-3.3)     75%      225(SW)      6.4 km/h    1016.5 hpa     30.1º    0.0 mm
   21-06-2018    02:00      21.4º(-3.3)     75%      247(SW)      4.8 km/h    1016.5 hpa     30.1º    0.0 mm
   21-06-2018    01:55      21.4º(----)     75%      247(SW)      4.8 km/h    1016.5 hpa     30.1º    0.0 mm
   21-06-2018    01:50      21.5º(----)     75%      247(SW)      3.2 km/h    1016.3 hpa     30.1º    0.0 mm
   21-06-2018    01:45      21.5º(----)     74%      247(SW)      4.8 km/h    1016.3 hpa     30.1º    0.0 mm
   21-06-2018    01:40      21.6º(----)     74%      247(SW)      3.2 km/h    1016.2 hpa     30.1º    0.0 mm
   21-06-2018    01:35      21.6º(----)     74%      270 (W)      4.8 km/h    1016.1 hpa     30.1º    0.0 mm
   21-06-2018    01:30      21.6º(----)     74%      270 (W)      8.0 km/h    1015.8 hpa     30.1º    0.0 mm
   21-06-2018    01:25      21.6º(----)     74%      270 (W)      9.7 km/h    1015.7 hpa     30.1º    0.0 mm
   21-06-2018    01:20      21.6º(----)     74%      270 (W)      8.0 km/h    1015.7 hpa     30.1º    0.0 mm
   21-06-2018    01:15      21.6º(----)     74%      270 (W)      8.0 km/h    1015.7 hpa     30.1º    0.0 mm
   21-06-2018    01:10      21.7º(----)     74%      270 (W)      9.7 km/h    1015.7 hpa     30.1º    0.0 mm
   21-06-2018    01:05      21.7º(----)     74%      270 (W)     11.3 km/h    1015.7 hpa     30.1º    0.0 mm
   21-06-2018    01:00      21.7º(----)     74%      270 (W)     11.3 km/h    1015.7 hpa     30.1º    0.0 mm
   21-06-2018    00:55      21.7º(----)     73%      270 (W)     11.3 km/h    1015.7 hpa     30.1º    0.0 mm
   21-06-2018    00:50      21.7º(----)     73%      270 (W)     11.3 km/h    1015.7 hpa     30.1º    0.0 mm
   21-06-2018    00:45      21.8º(----)     73%      270 (W)     11.3 km/h    1015.7 hpa     30.1º    0.0 mm
   21-06-2018    00:40      21.9º(----)     72%      270 (W)      9.7 km/h    1015.7 hpa     30.1º    0.0 mm
   21-06-2018    00:35      22.1º(----)     72%      270 (W)     11.3 km/h    1015.7 hpa     30.1º    0.0 mm
   21-06-2018    00:30      22.2º(----)     71%      270 (W)      9.7 km/h    1015.7 hpa     30.1º    0.0 mm
   21-06-2018    00:25      22.3º(----)     71%      270 (W)      9.7 km/h    1015.6 hpa     30.1º    0.0 mm
   21-06-2018    00:20      22.3º(----)     71%      270 (W)      9.7 km/h    1015.6 hpa     30.1º    0.0 mm
   21-06-2018    00:15      22.4º(----)     71%      270 (W)      8.0 km/h    1015.7 hpa     30.1º    0.0 mm
   21-06-2018    00:10      22.5º(----)     70%      270 (W)      6.4 km/h    1015.6 hpa     29.9º    0.0 mm
   21-06-2018    00:05      22.5º(----)     70%      270 (W)      9.7 km/h    1015.6 hpa     29.9º    0.0 mm
   21-06-2018    00:00      22.6º(----)     70%      270 (W)      9.7 km/h    1015.6 hpa     29.9º    0.0 mm